Lid_Strength_Index
4 6 6 6 6 6 6 6 5 5 5 5 4 4 4 5 5 5 5 5 5 6 6 6 5 4 3 3 3 3 3 3 4 4 3 2 3 2 1 1 0 1 1
6 6 6 6 7 8 6 6 6 6 6 6 5 5 5 5 6 6 7 6 6 6 6 5 5 3 4 4 4 4 3 3 3 5 3 3 3 2 2 2 1 0 1
6 6 8 8 7 7 7 7 7 7 6 6 6 6 6 7 7 7 8 7 7 7 6 5 4 4 4 4 3 3 4 3 3 4 4 3 3 3 3 2 2 2 1
6 7 7 8 7 7 7 6 6 5 5 5 4 5 7 7 8 8 8 7 7 6 5 5 4 4 3 4 4 5 4 5 4 5 5 4 4 3 3 4 3 2 2
6 7 8 8 7 6 6 5 5 6 5 5 5 5 6 7 8 8 8 8 8 7 5 4 3 3 3 5 7 7 7 8 8 8 7 7 7 7 7 6 6 6 5
8 8 7 6 6 6 6 7 7 7 7 6 6 5 7 7 8 8 7 9 7 5 6 5 4 4 6 7 7 7 8 9 9 9 8 8 7 7 6 6 6 6 8
7 6 6 6 7 7 7 7 8 8 7 6 5 5 7 8 8 9 8 8 8 6 6 5 5 6 8 9 10 9 9 8 7 8 8 8 8 6 6 6 6 6 6
7 7 7 7 7 7 8 9 8 7 7 7 6 5 7 8 8 9 8 9 7 7 6 6 8 9 10 11 11 11 9 8 8 7 7 7 7 6 6 6 7 7 6
8 7 7 7 8 9 9 10 9 8 7 6 6 6 7 7 9 9 9 10 9 9 7 6 8 10 11 11 11 11 10 9 8 7 8 8 8 7 7 6 7 7 7
8 7 7 8 8 8 8 9 8 7 8 8 7 6 7 9 10 10 10 10 10 9 7 9 9 11 12 11 11 11 12 11 10 9 8 7 6 4 4 4 4 6 6
8 8 8 9 8 8 8 9 9 8 10 10 9 8 8 10 10 10 10 10 9 9 9 10 10 11 11 11 11 11 12 11 10 9 8 6 5 4 4 5 4 4 5
8 9 9 9 9 10 11 11 11 11 12 11 11 11 9 9 10 10 11 11 9 9 9 10 10 11 12 11 11 12 12 10 10 10 8 6 6 4 5 5 5 5 4
8 9 10 10 10 10 12 13 13 12 12 12 12 11 11 11 11 11 12 11 10 10 9 10 11 11 11 11 11 11 11 11 11 10 9 7 6 3 5 5 5 5 4
10 9 10 10 11 12 11 13 14 14 13 13 14 14 13 13 13 13 12 11 10 10 10 10 11 11 11 11 11 11 11 11 11 11 9 7 4 4 5 5 6 6 6
10 9 8 10 12 13 12 13 13 13 13 14 13 14 14 15 15 13 12 12 11 11 11 11 13 13 13 13 12 12 11 11 12 11 9 8 6 5 5 5 5 5 7
10 10 9 10 10 11 11 12 11 12 12 12 12 12 13 12 12 12 12 12 12 12 12 13 14 14 14 14 13 13 12 11 12 11 10 8 7 6 6 6 6 6 6
10 8 8 9 11 12 12 13 13 12 11 11 12 12 12 12 12 12 12 12 13 12 13 13 14 14 14 14 14 13 13 12 12 11 10 9 7 6 6 7 7 7 7
10 8 8 9 10 11 12 12 13 13 13 12 11 12 12 13 12 12 12 12 13 13 13 13 13 14 14 14 15 14 14 13 13 12 11 10 8 7 6 7 8 8 8
11 9 10 10 11 12 11 12 12 12 11 11 12 11 12 13 12 12 12 13 13 13 13 14 14 14 15 15 14 15 15 15 14 13 12 12 9 7 7 7 9 10 10
12 10 10 11 11 12 11 12 12 12 12 12 12 12 13 12 12 13 13 13 13 13 13 14 14 15 15 15 15 15 16 16 16 15 14 12 9 8 8 7 8 10 10
11 12 11 12 12 12 12 12 12 13 13 13 13 12 14 12 12 13 13 13 14 12 12 14 14 15 16 15 15 16 16 16 16 16 14 13 9 8 8 8 7 8 9
11 11 11 12 12 12 13 12 13 13 13 14 14 13 13 12 12 13 13 13 13 13 13 13 14 15 15 16 16 16 16 17 16 16 15 13 10 8 8 8 9 8 9
11 11 11 12 12 12 13 13 13 13 13 13 14 13 13 13 13 13 13 12 13 13 13 14 15 15 15 15 16 17 17 17 16 14 15 13 11 11 8 8 8 9 9
11 11 11 12 12 13 13 13 13 12 12 13 13 13 13 13 13 12 13 12 12 13 13 14 15 16 16 16 16 16 16 16 16 15 14 12 11 12 9 9 8 8 8
10 11 11 12 12 13 13 12 12 12 12 12 12 12 13 13 13 13 12 12 12 12 12 13 15 16 16 16 16 16 16 16 16 16 14 13 12 11 11 9 9 9 9
11 11 12 12 12 13 13 13 13 12 12 12 12 12 12 12 13 13 13 13 12 13 12 13 14 15 16 16 16 16 16 16 16 15 14 14 14 13 12 10 9 9 9